Flight Track Log - Related Links

Times and Time Zones

All times are in EST time to prevent confusion due to time zone crossing. See the N320WD flight status page for this flight to view local times or setup timezone preferences in your user account.

Time Position Orientation Groundspeed Altitude Reporting Facility
EST Latitude Longitude Course Direction KTS MPH feet Rate Location/Type
Tue 03:03:37 PM 35.7733 -79.3631 51° Northeast 155 178 5,000  Level Washington Center
Tue 03:04:29 PM 35.7933 -79.3178 61° Northeast 186 214 5,000  Level Washington Center
Tue 03:05:29 PM 35.8286 -79.2581 54° Northeast 197 227 5,000  Level Washington Center
Tue 03:06:36 PM 35.8594 -79.2031 55° Northeast 191 220 5,000  Level Washington Center
Tue 03:07:30 PM 35.8842 -79.1506 60° Northeast 192 221 5,000  Level Washington Center
Tue 03:08:31 PM 35.9169 -79.0956 54° Northeast 193 222 5,000  Level Washington Center
Tue 03:09:31 PM 35.9458 -79.0403 57° Northeast 194 223 5,000  Level Washington Center
Tue 03:10:32 PM 35.9725 -78.9850 59° Northeast 192 221 5,000  Level Washington Center
Tue 03:11:27 PM 36.0031 -78.9350 53° Northeast 193 222 5,000  Level Washington Center
Tue 03:12:40 PM 36.0383 -78.8672 57° Northeast 194 223 5,000  Level Washington Center
Tue 03:13:34 PM 36.0625 -78.8192 58° Northeast 196 226 5,000 -52 Level Washington Center
Tue 03:14:35 PM 36.0853 -78.7483 68° East 198 228 4,900  Descending Washington Center
Tue 03:15:41 PM 36.1100 -78.6850 64° Northeast 194 223 5,000 52 Climbing Washington Center
Tue 03:16:30 PM 36.1297 -78.6394 62° Northeast 194 223 5,000  Level Washington Center
Tue 03:17:31 PM 36.1525 -78.5708 68° East 197 227 5,000  Level Washington Center
Tue 03:18:56 PM 36.1794 -78.4844 69° East 220 253 5,000  Level Washington Center
Tue 03:19:57 PM 36.1975 -78.4283 68° East 207 238 5,000  Level Washington Center
Tue 03:20:57 PM 36.2200 -78.3597 68° East 195 224 5,000  Level Washington Center
Tue 03:21:55 PM 36.2381 -78.3036 68° East 188 216 5,000  Level Washington Center
Tue 03:22:55 PM 36.2606 -78.2322 69° East 193 222 5,000  Level Washington Center
Tue 03:23:55 PM 36.2806 -78.1789 65° Northeast 188 216 5,000  Level Washington Center
Tue 03:24:56 PM 36.3028 -78.1075 69° East 193 222 5,000  Level Washington Center
Tue 03:25:57 PM 36.3250 -78.0436 67° East 193 222 5,000  Level Washington Center
Tue 03:26:57 PM 36.3431 -77.9772 71° East 193 222 5,000  Level Washington Center
Tue 03:27:57 PM 36.3650 -77.9161 66° East 193 222 5,000  Level Washington Center
Tue 03:28:55 PM 36.3850 -77.8519 69° East 193 222 5,000 -51 Level Washington Center
Tue 03:29:55 PM 36.4050 -77.7908 68° East 188 216 4,900  Descending Washington Center
Tue 03:30:57 PM 36.4206 -77.7369 70° East 188 216 5,000 50 Climbing Washington Center
Tue 03:31:55 PM 36.4447 -77.6653 67° East 193 222 5,000 -50 Level Washington Center
Tue 03:32:56 PM 36.4628 -77.5986 71° East 193 222 4,900  Descending Washington Center
Tue 03:33:57 PM 36.4844 -77.5372 66° East 193 222 5,000 50 Climbing Washington Center
Tue 03:34:57 PM 36.5086 -77.4656 67° East 193 222 5,000  Level Washington Center
Tue 03:35:55 PM 36.5283 -77.4014 69° East 193 222 5,000  Level Washington Center
Tue 03:36:55 PM 36.5481 -77.3372 69° East 193 222 5,000 -68 Level Washington Center
Tue 03:37:23 PM 36.5547 -77.3142 70° East 206 237 4,900 -103 Descending Washington Center
Tue 03:37:53 PM 36.5678 -77.2756 67° East 207 238 4,900 182 Level Washington Center
Tue 03:37:56 PM 36.5678 -77.2703 90° East 193 222 5,000  Climbing Washington Center
Tue 03:38:52 PM 36.5875 -77.2086 68° East 208 239 4,900  Descending Washington Center
Tue 03:38:55 PM 36.5875 -77.2061 90° East 193 222 5,000  Climbing Washington Center
Tue 03:39:52 PM 36.6072 -77.1392 70° East 211 243 4,900  Descending Washington Center
Tue 03:39:55 PM 36.6092 -77.1367 46° Northeast 193 222 5,000  Climbing Washington Center
Tue 03:40:54 PM 36.6144 -77.0644 85° East 214 246 4,900  Descending Washington Center
Tue 03:40:57 PM 36.6144 -77.0617 90° East 198 228 5,000  Climbing Washington Center
Tue 03:41:55 PM 36.6214 -76.9894 83° East 204 235 4,900 -51 Descending Washington Center
Tue 03:42:55 PM 36.6286 -76.9119 83° East 211 243 4,900 50 Level Washington Center
Tue 03:43:55 PM 36.6358 -76.8394 83° East 216 249 5,000 50 Climbing Washington Center
Tue 03:44:56 PM 36.6469 -76.7647 79° East 216 249 5,000 -49 Level Washington Center
Tue 03:45:57 PM 36.6581 -76.6872 80° East 216 249 4,900 -50 Descending Washington Center
Tue 03:46:56 PM 36.6669 -76.6122 82° East 216 249 4,900 -97 Level Washington Center
Tue 03:46:59 PM 36.6650 -76.6094 131° Southeast 224 258 4,800  Descending Washington Center
Tue 03:48:00 PM 36.6761 -76.5294 80° East 226 260 4,900 50 Climbing Washington Center
Tue 03:49:00 PM 36.6828 -76.4517 84° East 228 262 4,900  Level Washington Center
Tue 03:50:01 PM 36.6917 -76.3767 82° East 227 261 4,900  Level Washington Center
Tue 03:51:02 PM 36.7108 -76.3044 72° East 220 253 4,900 -353 Level Washington Center
Tue 03:52:00 PM 36.7531 -76.2478 47° Northeast 229 264 4,200 -857 Descending Washington Center
Tue 03:53:01 PM 36.8056 -76.1964 38° Northeast 229 264 3,200 -639 Descending Washington Center
Tue 03:54:02 PM 36.8536 -76.1553 34° Northeast 198 228 2,900 -344 Descending Washington Center
Tue 03:55:03 PM 36.8933 -76.1114 41° Northeast 193 222 2,500 -446 Descending Washington Center
Tue 03:56:03 PM 36.9311 -76.0725 39° Northeast 160 184 2,000 -248 Descending Washington Center
Tue 03:57:04 PM 36.9606 -76.0417 40° Northeast 133 153 2,000  Level Washington Center
Tue 03:58:05 PM 36.9856 -76.0572 334° Northwest 100 115 2,000  Level Washington Center
Tue 03:59:06 PM 36.9936 -76.0911 287° West 113 130 2,000 -50 Level Washington Center
Tue 04:00:04 PM 36.9706 -76.1275 232° Southwest 144 166 1,900 -403 Descending Washington Center
Tue 04:01:05 PM 36.9369 -76.1583 216° Southwest 138 159 1,200 -689 Descending Washington Center
Tue 04:02:06 PM 36.9139 -76.1817 219° Southwest 105 121 500 -689 Descending Washington Center

Login

Don't have an account? Register now (free) for customized features, flight alerts, and more!